This demonstration page uses our WeatherBlox Daily Observations layout. Learn more.

41.55636, -103.73856

Hourly Observations for May 28, 2018

Temp ( °F °C ) Dew Point ( °F °C ) Humidity (%) Winds ( mph kmh ) Pressure ( in mb ) Visibility ( mi km ) Precip ( " mm )
12:58 am 00:58 Mostly Cloudy with Light Showers 55 12.7 52 11.3 91 91 ENE 14 22 29.91 1013 10 16.0934 N/A
1:58 am 01:58 Cloudy with Light Showers 55 12.7 53 11.7 94 94 W 17 28 29.95 1014 10 16.0934 0.02 0.508
2:58 am 02:58 Mostly Cloudy with Heavy Thunderstorms 54 12.2 53 11.4 95 95 E 5 7 29.91 1013 2.5 4.02335 0.37 9.398
3:58 am 03:58 Mostly Cloudy 54 12.3 52 11.2 93 93 NNW 8 13 29.94 1014 10 16.0934 0.02 0.508
4:58 am 04:58 Mostly Clear 50 10.2 49 9.5 95 95 NNE 9 15 29.92 1013 10 16.0934 N/A
5:58 am 05:58 Mostly Cloudy 52 11 51 10.3 95 95 ESE 6 9 29.93 1014 10 16.0934 0 0
6:58 am 06:58 Partly Cloudy 56 13.1 53 11.9 93 93 N 3 6 29.94 1014 10 16.0934 0.01 0.254
7:58 am 07:58 Cloudy 57 14.1 53 11.4 84 84 NNE 5 7 29.96 1015 10 16.0934 N/A
8:58 am 08:58 Cloudy 58 14.4 53 11.7 84 84 NE 10 17 30 1016 10 16.0934 0 0
9:58 am 09:58 Mostly Cloudy 61 16 54 12.1 78 78 E 16 26 29.98 1015 10 16.0934 N/A
10:58 am 10:58 Partly Cloudy 63 17.2 53 11.7 70 70 E 8 13 29.95 1014 10 16.0934 N/A
11:58 am 11:58 Mostly Sunny 65 18.5 54 12.4 68 68 ENE 7 11 29.92 1013 10 16.0934 0 0
12:58 pm 12:58 Partly Cloudy 67 19.4 55 12.9 66 66 E 9 15 29.9 1013 10 16.0934 N/A
1:58 pm 13:58 Mostly Cloudy 65 18.4 56 13.3 72 72 E 12 19 29.91 1013 10 16.0934 N/A
2:58 pm 14:58 Cloudy 64 17.7 57 13.7 78 78 E 17 28 29.88 1012 10 16.0934 N/A
3:58 pm 15:58 Cloudy 62 16.5 58 14.3 87 87 E 9 15 29.88 1012 10 16.0934 N/A
4:58 pm 16:58 Cloudy with Light Showers 60 15.8 59 15.1 96 96 E 14 22 29.85 1011 5 8.0467 0.01 0.254
5:58 pm 17:58 Cloudy with Light Showers 61 15.9 60 15.3 96 96 E 13 20 29.83 1010 2.25 3.621015 0.01 0.254
6:58 pm 18:58 Cloudy with Heavy Thunderstorms 49 9.7 47 8.4 92 92 SW 23 37 29.91 1013 2.75 4.425685 0.81 20.574
7:58 pm 19:58 Cloudy with Light Rain 53 11.9 49 9.3 84 84 NNW 24 39 29.88 1012 10 16.0934 0.02 0.508
8:58 pm 20:58 Cloudy 53 11.4 49 9.2 86 86 NNE 14 22 29.86 1011 10 16.0934 0 0
9:58 pm 21:58 Cloudy 51 10.7 49 9.4 92 92 ENE 12 19 29.91 1013 10 16.0934 N/A
10:58 pm 22:58 Mostly Cloudy 51 10.4 48 9.1 92 92 NW 5 7 29.9 1013 10 16.0934 N/A
11:58 pm 23:58 Mostly Cloudy 51 10.3 49 9.2 93 93 SSW 7 11 29.9 1013 10 16.0934 0 0

Powered by AerisWeather